[[{"header":{"parameterUnit":"m.s-1","parameterCategory":1,"la1":30.2991,"la2":30.254,"lo1":-89.0895,"lo2":-89.0444,"dy":0.0017,"dx":0.0017,"nx":28,"ny":28,"refTime":"2024-10-18T21:00:00:Z","depth":0,"parameterNumber":2,"parameterNumberName":"U-component_of_WINDS"},"data":[0,0,0,0,0,0,0,0,0,0,0,0,0,0,0,0,0,0,0,0,0,0,0,0,0,0,0,0,0,0,0,0,0,0,0,0,0,0,0,0,0,0,0,0,0,0,0,0,0,0,0,0,0,0,0,0,0,0,-3.9973,-3.9973,0,-3.9994,-3.9994,-3.9994,-3.9877,-3.9873,-3.987,-3.9867,-3.9887,-3.989,-3.9894,0,0,0,0,0,0,0,0,0,0,0,0,0,-3.9827,-3.9831,-3.9973,-3.9973,-3.9973,-3.9994,-3.9994,-3.9995,-3.9877,-3.9873,-3.9869,-3.9865,-3.9885,-3.989,-3.9894,0,0,0,0,0,0,0,0,0,0,0,0,0,-3.9874,-3.9832,-3.9973,-3.9917,-3.9912,-3.9994,-3.9994,-3.9995,-3.9878,-3.9873,-3.9868,-3.9863,-3.9884,-3.9889,-3.9895,-4.003,0,0,-3.9912,-3.9914,0,0,0,0,0,0,0,0,-3.9871,-3.9879,-3.9925,-3.9921,-3.9916,-3.9927,-3.995,-4.0006,-3.9879,-3.9891,-3.9866,-3.9861,-3.9904,-3.9908,-3.9923,-4.0031,-4.0032,-3.9912,-3.9916,-3.9918,-3.9919,0,0,0,0,0,0,0,-3.9868,-3.9878,-3.9981,-3.9926,-3.992,-3.989,-3.9891,-3.996,-3.9926,-3.989,-3.9881,-3.9885,-3.9901,-3.9918,-3.9922,-4.0032,-3.9912,-3.9917,-3.992,-3.9922,-4.0251,-4.0256,0,0,0,0,0,0,-3.9873,-3.9876,-3.998,-3.9982,-3.9881,-3.9897,-3.9898,-3.9929,-3.9925,-3.9919,-3.989,-3.988,-3.9911,-3.9916,-3.9923,-4.008,-3.9918,-3.9923,-3.9926,-4.0246,-4.0252,-4.0258,0,0,0,0,0,0,-3.987,-3.9883,-3.9979,-3.9926,-3.9936,-3.9905,-3.994,-3.9932,-3.9949,-3.9925,-3.9918,-3.9914,-3.9907,-3.9915,-4.0004,-4.0079,-3.9925,-3.9931,-4.0239,-4.0248,-4.0255,-4.0396,0,0,0,0,0,0,-3.9866,-3.9883,-3.9935,-3.9928,-3.994,-4.0062,-3.9945,-3.9936,-3.9959,-3.9946,-3.9945,-3.994,-3.9904,-3.9997,-4.001,-4.0084,-3.9935,-4.0232,-4.0243,-4.0253,-4.0385,-4.0408,-4.0428,0,0,0,0,0,-3.9862,-3.9973,-3.9938,-3.9951,-4.0004,-4.0066,-4.0072,-4.0029,-3.9965,-4.0017,-4.0001,-3.994,-4.0069,-4.0007,-4.002,-4.0097,-4.0228,-4.024,-4.0252,-4.0375,-4.0403,-4.0428,0,0,0,0,0,0,-3.9989,-3.9972,-3.9932,-4.0045,-4.0058,-4.0046,-4.0109,-4.0061,-4.0091,-4.0078,-4.0022,-4.0022,-4.0121,-4.0118,-4.0049,-4.0227,-4.0137,-4.0153,-4.0226,-4.0253,-4.0274,-4.0272,-3.9939,0,0,0,0,0,-4.003,-4.0083,-4.0065,-4.0166,-4.0175,-4.0142,-4.0167,-4.0132,-4.0143,-4.0148,-4.0138,-4.0151,-4.0193,-4.0223,-4.0261,-4.0384,-4.0381,-4.0443,-4.0465,-4.0483,-4.0497,-4.0561,-4.0588,-4.0298,-4.0298,-4.0298,0,0,-4.0115,-4.0113,-4.0149,-4.0192,-4.0198,-4.0253,-4.0147,-4.021,-4.025,-4.0157,-4.024,-4.0235,-4.0244,-4.0351,-4.0397,-4.0351,-4.0576,-4.0499,-4.0513,-4.0517,-4.0576,-4.0603,-4.0628,-4.0307,-4.0305,-4.0304,0,0,-4.0299,-4.0303,-4.0388,-4.0396,-4.0406,-4.0383,-4.0404,-4.04,-4.0392,-4.0475,-4.0406,-4.0453,-4.0528,-4.0538,-4.0553,-4.074,-4.0685,-4.0754,-4.0868,-4.093,-4.0953,-4.0973,-4.1039,-4.1063,-4.0768,-4.0769,-4.0769,0,-4.0404,-4.0485,-4.0437,-4.0505,-4.0525,-4.0444,-4.0529,-4.0539,-4.0561,-4.0576,-4.0525,-4.0617,-4.0618,-4.0725,-4.0771,-4.0786,-4.0807,-4.0754,-4.0954,-4.0973,-4.0991,-4.1053,-4.1078,-4.0777,-4.0776,-4.0775,-4.0774,0,-4.0613,-4.0671,-4.0737,-4.0762,-4.0789,-4.0865,-4.0828,-4.0861,-4.0824,-4.0807,-4.0892,-4.089,-4.0926,-4.0949,-4.0913,-4.1051,-4.1022,-4.0964,-4.0871,-4.1028,-4.1085,-4.1109,-4.0789,-4.0786,-4.0783,-4.0781,0,0,-4.0878,-4.0874,-4.0899,-4.0909,-4.0914,-4.0957,-4.1029,-4.1065,-4.1094,-4.1113,-4.1171,-4.1236,-4.1182,-4.1199,-4.1163,-4.1218,-4.1366,-4.1152,-4.1151,-4.1191,-4.1516,-4.156,-4.1589,-4.133,-4.1334,-4.1338,-4.1515,0,-4.1057,-4.118,-4.1138,-4.1263,-4.1315,-4.1239,-4.1301,-4.1311,-4.1296,-4.1337,-4.132,-4.1367,-4.1292,-4.1302,-4.1353,-4.1337,-4.143,-4.1324,-4.1382,-4.1385,-4.1382,-4.1619,-4.1666,-4.1834,-4.1538,-4.1541,-4.1544,0,-4.1282,-4.131,-4.144,-4.1436,-4.1456,-4.1513,-4.1542,-4.1583,-4.1592,-4.1577,-4.1596,-4.1549,-4.1618,-4.1527,-4.1621,-4.1549,-4.1571,-4.1567,-4.1572,-4.1575,-4.1474,-4.1628,-4.1886,-4.1911,-4.1579,-4.1576,-4.1574,0,-4.1461,-4.1531,-4.1617,-4.1628,-4.1626,-4.1667,-4.1668,-4.1672,-4.1696,-4.1721,-4.1736,-4.1769,-4.1787,-4.1814,-4.1776,-4.1713,-4.1875,-4.1781,-4.1864,-4.1866,-4.1901,-4.19,-4.2166,-4.1917,-4.1917,-4.1916,-4.1916,0,-4.1665,-4.1748,-4.1697,-4.1751,-4.184,-4.1792,-4.1881,-4.1874,-4.1878,-4.1928,-4.1864,-4.1911,-4.1859,-4.1902,-4.1873,-4.1955,-4.1964,-4.1953,-4.1944,-4.1959,-4.196,-4.1971,-4.1958,-4.1923,-4.1921,-4.192,-4.1919,0,-4.188,-4.185,-4.1939,-4.193,-4.1929,-4.1996,-4.1987,-4.2035,-4.2016,-4.208,-4.2092,-4.2062,-4.2108,-4.2074,-4.212,-4.2101,-4.2208,-4.2183,-4.2206,-4.2198,-4.2283,-4.2276,-4.2566,-4.2601,-4.233,-4.2333,-4.2335,0,-4.2012,-4.2074,-4.2071,-4.21,-4.2105,-4.2152,-4.2176,-4.2131,-4.2158,-4.2173,-4.222,-4.2261,-4.2292,-4.237,-4.2352,-4.2387,-4.2362,-4.2461,-4.2367,-4.2379,-4.2363,-4.2359,-4.2365,-4.248,-4.2484,-4.2486,-4.2488,0,-4.2249,-4.2231,-4.2269,-4.2302,-4.2332,-4.2356,-4.2374,-4.2401,-4.2354,-4.2388,-4.2436,-4.246,-4.2507,-4.2549,-4.2577,-4.2577,-4.2525,-4.2518,-4.2539,-4.2554,-4.2564,-4.2559,-4.2257,-4.2512,-4.2509,-4.2508,-4.2506,-4.2505,-4.2426,-4.2477,-4.2483,-4.2526,-4.2535,-4.2554,-4.2598,-4.2585,-4.2624,-4.2659,-4.2629,-4.2686,-4.2693,-4.2725,-4.2732,-4.2775,-4.2734,-4.2764,-4.2772,-4.278,-4.2792,-4.2558,-4.278,-4.2779,-4.2778,-4.2778,-4.2777,0,-4.2659,-4.2659,-4.27,-4.2727,-4.2762,-4.271,-4.2727,-4.2759,-4.281,-4.2821,-4.2852,-4.2907,-4.2947,-4.2932,-4.2967,-4.3005,-4.2982,-4.3015,-4.3012,-4.3012,-4.2827,-4.2805,-4.3033,-4.3033,-4.3033,-4.3033,-4.3033,-4.3033,-4.2784,-4.2867,-4.285,-4.2936,-4.2935,-4.2991,-4.3005,-4.3021,-4.3029,-4.3093,-4.3126,-4.3116,-4.3116,-4.3151,-4.3185,-4.318,-4.3195,-4.3238,-4.3224,-4.3051,-4.3025,-4.3001,-4.298,-4.3242,-4.3242,-4.3405,-4.3407,-4.3408]},{"header":{"parameterUnit":"m.s-1","parameterCategory":1,"la1":30.2991,"la2":30.254,"lo1":-89.0895,"lo2":-89.0444,"dy":0.0017,"dx":0.0017,"nx":28,"ny":28,"refTime":"2024-10-18T21:00:00:Z","depth":0,"parameterNumber":3,"parameterNumberName":"V-component_of_WINDS"},"data":[0,0,0,0,0,0,0,0,0,0,0,0,0,0,0,0,0,0,0,0,0,0,0,0,0,0,0,0,0,0,0,0,0,0,0,0,0,0,0,0,0,0,0,0,0,0,0,0,0,0,0,0,0,0,0,0,0,0,-1.8514,-1.8515,0,-1.861,-1.8611,-1.8612,-1.8633,-1.8632,-1.8631,-1.863,-1.8725,-1.8728,-1.8731,0,0,0,0,0,0,0,0,0,0,0,0,0,-1.8343,-1.8346,-1.8514,-1.8515,-1.8516,-1.861,-1.8611,-1.8612,-1.8633,-1.8632,-1.8631,-1.863,-1.8724,-1.8728,-1.8732,0,0,0,0,0,0,0,0,0,0,0,0,0,-1.8426,-1.8347,-1.8514,-1.8538,-1.8541,-1.8609,-1.8611,-1.8613,-1.8633,-1.8632,-1.8631,-1.863,-1.8723,-1.8727,-1.8732,-1.8782,0,0,-1.8747,-1.8749,0,0,0,0,0,0,0,0,-1.8421,-1.8432,-1.8533,-1.8536,-1.854,-1.8608,-1.8586,-1.8669,-1.8633,-1.8598,-1.863,-1.8629,-1.8687,-1.8694,-1.8715,-1.8787,-1.8791,-1.8747,-1.875,-1.8752,-1.8753,0,0,0,0,0,0,0,-1.8416,-1.8428,-1.8552,-1.8534,-1.8539,-1.8542,-1.8553,-1.8602,-1.8647,-1.8601,-1.8603,-1.8614,-1.8688,-1.871,-1.8717,-1.8792,-1.8747,-1.8751,-1.8754,-1.8756,-1.8909,-1.891,0,0,0,0,0,0,-1.8406,-1.8423,-1.8549,-1.8555,-1.8477,-1.8546,-1.8558,-1.8587,-1.8646,-1.8654,-1.8615,-1.8614,-1.8702,-1.8711,-1.872,-1.8783,-1.8752,-1.8756,-1.8759,-1.8908,-1.8909,-1.891,0,0,0,0,0,0,-1.8402,-1.8417,-1.8545,-1.8489,-1.8506,-1.855,-1.8583,-1.859,-1.8611,-1.8657,-1.8665,-1.8629,-1.8702,-1.8714,-1.8767,-1.8786,-1.8758,-1.8763,-1.8906,-1.8908,-1.891,-1.8908,0,0,0,0,0,0,-1.8397,-1.8416,-1.8436,-1.849,-1.8509,-1.8591,-1.8584,-1.8592,-1.862,-1.8621,-1.8672,-1.868,-1.8702,-1.876,-1.8771,-1.8792,-1.8766,-1.8905,-1.8907,-1.8909,-1.8906,-1.8909,-1.8912,0,0,0,0,0,-1.8391,-1.8431,-1.8437,-1.8452,-1.8536,-1.8592,-1.8603,-1.8629,-1.8621,-1.8642,-1.8671,-1.8678,-1.8782,-1.8765,-1.8778,-1.8801,-1.8904,-1.8906,-1.8909,-1.8905,-1.8908,-1.8912,0,0,0,0,0,0,-1.8378,-1.8439,-1.8446,-1.8505,-1.8543,-1.8595,-1.8622,-1.8632,-1.8672,-1.8671,-1.87,-1.8712,-1.8763,-1.8787,-1.8767,-1.8852,-1.8842,-1.8848,-1.8834,-1.8838,-1.8841,-1.8834,-1.877,0,0,0,0,0,-1.8382,-1.8424,-1.8474,-1.8521,-1.854,-1.8578,-1.8603,-1.862,-1.866,-1.8676,-1.8709,-1.8747,-1.8788,-1.8814,-1.8855,-1.8909,-1.892,-1.8931,-1.8934,-1.8936,-1.8941,-1.8971,-1.8976,-1.8919,-1.8919,-1.8919,0,0,-1.839,-1.8429,-1.8453,-1.8519,-1.8551,-1.8592,-1.8591,-1.8635,-1.8665,-1.8682,-1.8735,-1.876,-1.8804,-1.8858,-1.8883,-1.888,-1.8959,-1.894,-1.8941,-1.8945,-1.8974,-1.8979,-1.8984,-1.8921,-1.8921,-1.8921,0,0,-1.8427,-1.8461,-1.8503,-1.8535,-1.8583,-1.8608,-1.8618,-1.8669,-1.8686,-1.874,-1.8753,-1.8789,-1.8859,-1.889,-1.8915,-1.8962,-1.8969,-1.8974,-1.8988,-1.9017,-1.9021,-1.9026,-1.9042,-1.9047,-1.8978,-1.8978,-1.8978,0,-1.8431,-1.8495,-1.8523,-1.8567,-1.8595,-1.8613,-1.8655,-1.8684,-1.8743,-1.8761,-1.8756,-1.8845,-1.8876,-1.8937,-1.8948,-1.8968,-1.8979,-1.8968,-1.9019,-1.9023,-1.9027,-1.9043,-1.9049,-1.8978,-1.8978,-1.8978,-1.8978,0,-1.8498,-1.8542,-1.857,-1.8627,-1.8658,-1.8701,-1.8734,-1.8762,-1.8775,-1.88,-1.8853,-1.8891,-1.8939,-1.8954,-1.8968,-1.9017,-1.9013,-1.9013,-1.9004,-1.9032,-1.9048,-1.9054,-1.8979,-1.8978,-1.8978,-1.8978,0,0,-1.8529,-1.8601,-1.8611,-1.8637,-1.8691,-1.8725,-1.8767,-1.8815,-1.8838,-1.8877,-1.8913,-1.8972,-1.8972,-1.9,-1.9017,-1.9042,-1.9076,-1.9039,-1.9041,-1.9045,-1.9132,-1.9132,-1.9138,-1.9082,-1.9083,-1.9084,-1.9128,0,-1.8572,-1.8651,-1.8677,-1.8741,-1.8782,-1.8799,-1.8836,-1.8872,-1.8896,-1.8932,-1.8958,-1.8999,-1.8996,-1.9013,-1.9039,-1.9067,-1.9094,-1.9064,-1.9114,-1.9116,-1.9103,-1.9147,-1.9146,-1.9187,-1.9134,-1.9136,-1.9136,0,-1.8634,-1.8675,-1.8744,-1.8792,-1.881,-1.8843,-1.8888,-1.8924,-1.8964,-1.898,-1.9011,-1.9025,-1.9069,-1.9057,-1.9117,-1.9095,-1.9117,-1.9134,-1.9136,-1.9142,-1.9128,-1.9153,-1.92,-1.9206,-1.9146,-1.9145,-1.9145,0,-1.8649,-1.8722,-1.8772,-1.8794,-1.8852,-1.8874,-1.8899,-1.8939,-1.8966,-1.9005,-1.9022,-1.9066,-1.9089,-1.9122,-1.9147,-1.9136,-1.9204,-1.9195,-1.9217,-1.9217,-1.9231,-1.923,-1.9282,-1.9245,-1.9245,-1.9245,-1.9245,0,-1.8695,-1.8736,-1.878,-1.8811,-1.8857,-1.8886,-1.893,-1.8956,-1.8991,-1.9026,-1.9043,-1.9075,-1.9107,-1.9143,-1.9162,-1.9208,-1.9219,-1.9232,-1.9237,-1.923,-1.9229,-1.9245,-1.9243,-1.9247,-1.9246,-1.9246,-1.9246,0,-1.8721,-1.8752,-1.8808,-1.8858,-1.8871,-1.8903,-1.8945,-1.8975,-1.8999,-1.9043,-1.9055,-1.9093,-1.9136,-1.9164,-1.9219,-1.9232,-1.9282,-1.9287,-1.9269,-1.9271,-1.9292,-1.929,-1.9357,-1.9367,-1.9323,-1.9324,-1.9324,0,-1.8748,-1.878,-1.8834,-1.8859,-1.8884,-1.8925,-1.8952,-1.8981,-1.9009,-1.9057,-1.9081,-1.9125,-1.9162,-1.923,-1.9261,-1.9303,-1.9308,-1.9329,-1.9315,-1.9307,-1.9308,-1.9306,-1.9309,-1.9331,-1.9331,-1.9332,-1.9332,0,-1.8792,-1.8806,-1.8846,-1.8891,-1.8924,-1.8961,-1.8998,-1.9017,-1.9051,-1.9081,-1.9126,-1.9155,-1.9211,-1.9255,-1.9299,-1.9323,-1.9333,-1.9336,-1.9343,-1.9338,-1.9326,-1.9332,-1.9275,-1.9334,-1.9334,-1.9334,-1.9334,-1.9334,-1.882,-1.8849,-1.8891,-1.8935,-1.8965,-1.8999,-1.903,-1.9058,-1.9096,-1.9145,-1.9159,-1.9205,-1.9244,-1.9305,-1.9329,-1.9365,-1.9363,-1.9374,-1.9376,-1.9379,-1.9379,-1.932,-1.9373,-1.9373,-1.9373,-1.9373,-1.9373,0,-1.8865,-1.8893,-1.8933,-1.8984,-1.9018,-1.9025,-1.9065,-1.9093,-1.9134,-1.917,-1.9206,-1.9257,-1.9299,-1.9333,-1.9376,-1.9398,-1.9404,-1.9409,-1.9407,-1.9413,-1.9378,-1.9368,-1.9404,-1.9404,-1.9404,-1.9404,-1.9404,-1.9404,-1.8893,-1.8942,-1.8961,-1.9025,-1.9052,-1.9099,-1.9122,-1.9152,-1.9181,-1.9237,-1.9273,-1.9295,-1.933,-1.9376,-1.9414,-1.9423,-1.9438,-1.9442,-1.9451,-1.9419,-1.9415,-1.9412,-1.9402,-1.9445,-1.9445,-1.9483,-1.9483,-1.9483]}]]